[[[{"header":{"parameterUnit":"kt","parameterCategory":2,"dx":1,"dy":1,"la1":30.253999710083008,"la2":30.299108505249023,"lo1":-89.0895004272461,"lo2":-89.04439544677734,"nx":28,"ny":28,"refTime":"2022-10-14T21:00:00:Z","depth":0,"parameterNumber":1,"parameterNumberName":"U-component_of_WINDS"},"data":[-5.7018,-5.7048,-5.7007,-5.7022,-5.6988,-5.6991,-5.6979,-5.6959,-5.6933,-5.6933,-5.6925,-5.6887,-5.6844,-5.6825,-5.6814,-5.6797,-5.6794,-5.6836,-5.6808,-5.6659,-5.6636,-5.6613,-5.6602,-5.6837,-5.6838,-5.6967,-5.6968,-5.6969,-5.6915,-5.6881,-5.6877,-5.6845,-5.6841,-5.6776,-5.6746,-5.6746,-5.6751,-5.6719,-5.6709,-5.6705,-5.6697,-5.6637,-5.6622,-5.6635,-5.6602,-5.6634,-5.663,-5.6624,-5.6464,-5.6453,-5.6661,-5.6661,-5.6661,-5.6661,-5.666,-5.666,-5.6716,-5.6736,-5.6691,-5.6686,-5.6658,-5.6637,-5.6648,-5.6599,-5.6595,-5.6573,-5.6523,-5.6528,-5.6487,-5.6446,-5.6422,-5.6424,-5.6381,-5.6402,-5.6406,-5.6412,-5.6424,-5.624,-5.642,-5.6419,-5.6419,-5.6418,-5.6418,0,-5.6556,-5.6519,-5.6511,-5.6492,-5.6486,-5.6467,-5.6441,-5.6448,-5.6353,-5.6354,-5.635,-5.6341,-5.6323,-5.6314,-5.629,-5.6259,-5.6188,-5.6177,-5.6191,-5.6213,-5.6237,-5.6222,-5.5962,-5.6171,-5.6169,-5.6167,-5.6166,-5.6165,-5.635,-5.6378,-5.631,-5.631,-5.6285,-5.6288,-5.628,-5.6194,-5.619,-5.6147,-5.6168,-5.6159,-5.6146,-5.6148,-5.6088,-5.6074,-5.6039,-5.6123,-5.6036,-5.6058,-5.6037,-5.6035,-5.6037,-5.6141,-5.6144,-5.6147,-5.6149,0,-5.6238,-5.6166,-5.6196,-5.6124,-5.6107,-5.6141,-5.6079,-5.6096,-5.6045,-5.606,-5.6059,-5.5978,-5.5976,-5.5901,-5.5884,-5.5845,-5.5901,-5.5868,-5.5914,-5.5903,-5.5969,-5.5963,-5.6202,-5.6228,-5.5985,-5.5988,-5.599,0,-5.6032,-5.6073,-5.5963,-5.5983,-5.6026,-5.5937,-5.5981,-5.5941,-5.5902,-5.5913,-5.5821,-5.5834,-5.5736,-5.5738,-5.568,-5.5713,-5.571,-5.5681,-5.5664,-5.5687,-5.5691,-5.5681,-5.5668,-5.5629,-5.5627,-5.5626,-5.5626,0,-5.5861,-5.585,-5.5883,-5.5869,-5.5795,-5.5813,-5.5783,-5.5738,-5.5731,-5.571,-5.5704,-5.5687,-5.5677,-5.5666,-5.5591,-5.5534,-5.5629,-5.5536,-5.5599,-5.5601,-5.5621,-5.562,-5.5853,-5.5624,-5.5624,-5.5623,-5.5623,0,-5.5682,-5.5662,-5.5722,-5.5657,-5.5657,-5.568,-5.5655,-5.5657,-5.5616,-5.558,-5.5563,-5.5491,-5.5514,-5.5426,-5.5456,-5.5403,-5.5398,-5.5373,-5.5376,-5.537,-5.5273,-5.5412,-5.5643,-5.5663,-5.537,-5.5368,-5.5366,0,-5.5506,-5.5546,-5.5468,-5.5527,-5.5535,-5.5428,-5.5452,-5.5417,-5.5371,-5.5371,-5.532,-5.5321,-5.524,-5.5229,-5.5254,-5.52,-5.527,-5.5189,-5.5189,-5.519,-5.5201,-5.5414,-5.5465,-5.5602,-5.5338,-5.5341,-5.5343,0,-5.5359,-5.5266,-5.5282,-5.526,-5.5199,-5.5205,-5.5233,-5.5212,-5.5216,-5.5188,-5.5208,-5.5208,-5.5145,-5.5129,-5.5067,-5.5098,-5.522,-5.5026,-5.5024,-5.5062,-5.5318,-5.5367,-5.539,-5.5173,-5.5176,-5.5179,-5.5321,0,-5.5102,-5.5111,-5.5151,-5.5107,-5.5099,-5.5131,-5.5048,-5.5051,-5.4992,-5.4941,-5.497,-5.492,-5.49,-5.4906,-5.4848,-5.4941,-5.4913,-5.4847,-5.4753,-5.4894,-5.4939,-5.4957,-5.4693,-5.469,-5.4687,-5.4685,0,0,-5.495,-5.4961,-5.4872,-5.4894,-5.4881,-5.4767,-5.4809,-5.4784,-5.4736,-5.473,-5.4677,-5.467,-5.4631,-5.4674,-5.4712,-5.4705,-5.4713,-5.4666,-5.4828,-5.4844,-5.4859,-5.4909,-5.4929,-5.468,-5.4679,-5.4678,-5.4677,0,-5.4837,-5.48,-5.4841,-5.4811,-5.4762,-5.4705,-5.4716,-5.4647,-5.4615,-5.4642,-5.4547,-5.4554,-5.455,-5.4521,-5.4506,-5.466,-5.4586,-5.466,-5.477,-5.4804,-5.4824,-5.4841,-5.4894,-5.4914,-5.4671,-5.4671,-5.4671,0,-5.4675,-5.4624,-5.4635,-5.46,-5.4566,-5.4577,-5.4458,-5.4474,-5.4481,-5.4354,-5.4381,-5.4343,-5.4298,-5.435,-5.437,-5.4322,-5.4476,-5.4413,-5.4428,-5.4427,-5.4455,-5.448,-5.4501,-5.4218,-5.4216,-5.4215,0,0,-5.4589,-5.4596,-5.4513,-5.4569,-5.4555,-5.447,-5.4466,-5.4405,-5.4366,-5.4351,-5.4299,-5.4264,-5.426,-5.426,-5.4252,-5.4321,-5.4303,-5.436,-5.4382,-5.44,-5.4409,-5.4442,-5.4466,-5.4211,-5.4211,-5.421,0,0,-5.4547,-5.4451,-5.4397,-5.4452,-5.4418,-5.4339,-5.4376,-5.4309,-5.4292,-5.4278,-5.4177,-5.4163,-5.421,-5.4175,-5.4123,-5.4216,-5.4126,-5.4136,-5.4237,-5.4262,-5.4283,-5.4289,-5.3992,0,0,0,0,0,-5.4386,-5.4463,-5.4415,-5.4411,-5.4366,-5.4366,-5.4359,-5.4276,-5.4214,-5.4246,-5.4191,-5.4112,-5.4126,-5.4077,-5.4075,-5.4133,-5.415,-5.4161,-5.4171,-5.4316,-5.4344,-5.4368,0,0,0,0,0,0,-5.4384,-5.438,-5.4413,-5.4338,-5.4327,-5.4362,-5.4238,-5.4217,-5.4208,-5.4193,-5.4126,-5.411,-5.404,-5.4072,-5.4072,-5.4129,-5.3992,-5.4155,-5.4164,-5.4172,-5.4326,-5.4349,-5.4368,0,0,0,0,0,-5.4382,-5.4378,-5.4327,-5.4336,-5.4327,-5.4235,-5.4234,-5.4216,-5.4207,-5.4121,-5.4103,-5.4145,-5.4044,-5.4037,-5.4071,-5.4131,-5.3992,-5.3992,-5.416,-5.4168,-5.4174,-5.4337,0,0,0,0,0,0,-5.438,-5.4362,-5.4323,-5.4317,-5.43,-5.4231,-5.4217,-5.4215,-5.4135,-5.4118,-5.4136,-5.4125,-5.4047,-5.4042,-5.4038,-5.4137,-5.3992,-5.3992,-5.3992,-5.4166,-5.4172,-5.4176,0,0,0,0,0,0,-5.4363,-5.4358,-5.432,-5.4279,-5.4267,-5.4228,-5.4216,-5.4232,-5.4135,-5.4153,-5.4141,-5.4132,-5.4053,-5.4046,-5.4042,-5.4071,-5.3991,-5.3992,-5.3992,-5.3992,-5.417,-5.4175,0,0,0,0,0,0,-5.4359,-5.4355,-5.428,-5.4271,-5.4261,-5.4187,-5.4241,-5.4199,-5.41,-5.4159,-5.4089,-5.4084,-5.406,-5.4054,-5.4045,-5.4076,-5.4072,-5.3991,-5.3992,-5.3992,-5.3992,0,0,0,0,0,0,0,-5.4356,-5.4408,-5.4359,-5.4265,-5.4255,-5.4261,-5.426,-5.4258,-5.4099,-5.4095,-5.409,-5.4086,-5.399,-5.3991,-5.3991,-5.4081,0,0,-5.3991,-5.3992,0,0,0,0,0,0,0,0,-5.4408,-5.4408,-5.4358,-5.4357,-5.4356,-5.4261,-5.426,-5.4258,-5.4098,-5.4095,-5.4091,-5.4088,-5.399,-5.3991,-5.3991,0,0,0,0,0,0,0,0,0,0,0,0,0,0,0,-5.4358,-5.4357,0,-5.4261,-5.426,-5.4259,-5.4098,-5.4095,-5.4092,-5.4089,-5.3991,-5.3991,-5.3991,0,0,0,0,0,0,0,0,0,0,0,0,0,0,0,0,0,0,0,0,0,0,0,0,0,0,0,0,0,0,0,0,0,0,0,0,0,0,0,0,0,0,0,0,0,0,0,0,0,0,0,0,0,0,0,0,0,0,0,0,0,0,0,0,0,0,0,0,0]}],[{"header":{"parameterUnit":"kt","parameterCategory":2,"dx":1,"dy":1,"la1":30.253999710083008,"la2":30.299108505249023,"lo1":-89.0895004272461,"lo2":-89.04439544677734,"nx":28,"ny":28,"refTime":"2022-10-14T21:00:00:Z","depth":0,"parameterNumber":2,"parameterNumberName":"V-component_of_WINDS"},"data":[-0.0924,-0.0942,-0.0913,-0.092,-0.0895,-0.0894,-0.0885,-0.087,-0.085,-0.0847,-0.0839,-0.0813,-0.0782,-0.0766,-0.0757,-0.0745,-0.0743,-0.077,-0.0751,-0.0658,-0.0644,-0.0629,-0.0622,-0.077,-0.077,-0.0851,-0.0851,-0.0852,-0.0855,-0.083,-0.0826,-0.0801,-0.0797,-0.0753,-0.0731,-0.073,-0.0731,-0.0708,-0.07,-0.0695,-0.0688,-0.0648,-0.0636,-0.0643,-0.0622,-0.0642,-0.064,-0.0636,-0.0536,-0.0529,-0.0659,-0.0659,-0.0659,-0.0659,-0.0659,-0.0659,-0.0719,-0.0732,-0.07,-0.0695,-0.0675,-0.066,-0.0667,-0.0633,-0.0629,-0.0613,-0.058,-0.0582,-0.0553,-0.0526,-0.051,-0.051,-0.0483,-0.0496,-0.0499,-0.0503,-0.051,-0.0393,-0.0507,-0.0507,-0.0506,-0.0506,-0.0506,0,-0.0611,-0.0585,-0.058,-0.0565,-0.056,-0.0547,-0.053,-0.0533,-0.0471,-0.0471,-0.0468,-0.0461,-0.0449,-0.0443,-0.0426,-0.0407,-0.0362,-0.0355,-0.0364,-0.0379,-0.0393,-0.0384,-0.022,-0.0352,-0.0351,-0.035,-0.0349,-0.0349,-0.047,-0.0489,-0.0443,-0.0443,-0.0426,-0.0428,-0.0423,-0.0367,-0.0364,-0.0336,-0.035,-0.0344,-0.0336,-0.0337,-0.0299,-0.029,-0.0268,-0.0321,-0.0267,-0.028,-0.0267,-0.0266,-0.0266,-0.0333,-0.0335,-0.0337,-0.0338,0,-0.0393,-0.0346,-0.0367,-0.032,-0.0308,-0.0332,-0.0291,-0.0302,-0.0269,-0.028,-0.0279,-0.0228,-0.0227,-0.018,-0.0171,-0.0146,-0.0182,-0.0162,-0.019,-0.0183,-0.0225,-0.0221,-0.0371,-0.0387,-0.0235,-0.0237,-0.0238,0,-0.0254,-0.0283,-0.021,-0.0225,-0.0254,-0.0196,-0.0227,-0.0201,-0.0177,-0.0185,-0.0127,-0.0136,-0.0075,-0.0077,-0.0041,-0.0063,-0.0062,-0.0044,-0.0034,-0.0049,-0.0051,-0.0047,-0.0039,-0.0013,-0.0012,-0.0012,-0.0011,0,-0.0138,-0.0134,-0.0158,-0.0149,-0.0103,-0.0115,-0.0097,-0.007,-0.0066,-0.0054,-0.0051,-0.0043,-0.0038,-0.0031,0.0015,0.005,-0.0011,0.0047,0.0007,0.0006,-0.001,-0.0009,-0.0154,-0.001,-0.001,-0.001,-0.0009,0,-0.0019,-0.0007,-0.005,-0.0009,-0.001,-0.0027,-0.0013,-0.0017,0.0007,0.0029,0.0038,0.0082,0.0066,0.0121,0.01,0.0134,0.0135,0.015,0.0148,0.015,0.021,0.0123,-0.002,-0.0032,0.0152,0.0153,0.0155,0,0.0103,0.0071,0.0121,0.0078,0.007,0.0138,0.012,0.0139,0.0167,0.0165,0.0195,0.019,0.0241,0.0246,0.0229,0.0259,0.0216,0.0267,0.0262,0.0262,0.0256,0.0125,0.0092,0.0007,0.0172,0.017,0.0169,0,0.0202,0.0259,0.0247,0.026,0.0294,0.0287,0.0266,0.0275,0.027,0.0284,0.0269,0.0262,0.0301,0.0307,0.0343,0.0323,0.0247,0.0366,0.0368,0.0345,0.0184,0.0154,0.0139,0.0276,0.0274,0.0272,0.0183,0,0.0376,0.0365,0.0336,0.0359,0.0361,0.0335,0.0385,0.0381,0.0416,0.0445,0.0422,0.0447,0.0453,0.0448,0.0481,0.042,0.0437,0.0477,0.0533,0.0446,0.0419,0.0407,0.0572,0.0574,0.0575,0.0577,0,0,0.0481,0.0466,0.0519,0.0501,0.0506,0.0575,0.0544,0.0556,0.0577,0.0579,0.0612,0.0605,0.0623,0.0589,0.0566,0.0567,0.0561,0.0588,0.0487,0.0477,0.0468,0.0437,0.0424,0.058,0.058,0.0581,0.0581,0,0.0555,0.0573,0.0542,0.0557,0.0582,0.0614,0.0607,0.0642,0.0659,0.0636,0.0692,0.0683,0.0674,0.0687,0.0692,0.0594,0.0636,0.0592,0.0524,0.0502,0.049,0.0479,0.0446,0.0433,0.0585,0.0585,0.0585,0,0.0663,0.069,0.068,0.0692,0.0708,0.0697,0.077,0.0753,0.0745,0.0819,0.0794,0.0813,0.0834,0.0794,0.0778,0.0806,0.0702,0.0742,0.0733,0.0732,0.0713,0.0698,0.0684,0.086,0.086,0.0861,0,0,0.072,0.0709,0.0755,0.0712,0.0718,0.0765,0.0763,0.0798,0.0815,0.0822,0.0848,0.0862,0.0858,0.0854,0.0852,0.0801,0.081,0.0774,0.0761,0.075,0.0743,0.0721,0.0706,0.0864,0.0864,0.0864,0,0,0.0746,0.0798,0.0831,0.0787,0.0802,0.0843,0.0815,0.0855,0.0858,0.0867,0.0922,0.0929,0.0892,0.0908,0.0942,0.0873,0.0928,0.092,0.0863,0.0848,0.0835,0.0832,0.1018,0,0,0,0,0,0.0847,0.0792,0.0821,0.0821,0.0836,0.0827,0.0829,0.0875,0.0914,0.0891,0.092,0.0964,0.0939,0.097,0.0968,0.093,0.0901,0.0895,0.0888,0.0803,0.0786,0.0772,0,0,0,0,0,0,0.0847,0.0847,0.0823,0.086,0.0864,0.083,0.0906,0.0917,0.0918,0.0927,0.0957,0.0965,0.1003,0.0974,0.0972,0.0934,0.1018,0.0899,0.0893,0.0888,0.0797,0.0784,0.0772,0,0,0,0,0,0.0848,0.0848,0.0859,0.0862,0.0865,0.0913,0.0908,0.0918,0.092,0.0963,0.0972,0.0954,0.1001,0.1002,0.0973,0.0934,0.102,0.1019,0.0895,0.0891,0.0887,0.0791,0,0,0,0,0,0,0.0848,0.0856,0.086,0.0863,0.0885,0.0916,0.0923,0.0919,0.0956,0.0965,0.0962,0.0969,0.0998,0.1,0.1001,0.0932,0.1022,0.1021,0.102,0.0892,0.0888,0.0885,0,0,0,0,0,0,0.0857,0.0858,0.0862,0.0889,0.0896,0.0918,0.0924,0.0905,0.0956,0.0954,0.0961,0.0965,0.0997,0.0998,0.0999,0.0967,0.1023,0.1022,0.1021,0.1021,0.0889,0.0886,0,0,0,0,0,0,0.0858,0.0859,0.0889,0.0894,0.0899,0.0933,0.0902,0.0914,0.0981,0.0951,0.0988,0.0991,0.0993,0.0995,0.0997,0.0964,0.0966,0.1023,0.1022,0.1022,0.1021,0,0,0,0,0,0,0,0.0859,0.0841,0.0845,0.0897,0.0902,0.0888,0.0889,0.0889,0.0981,0.0984,0.0987,0.099,0.1028,0.1027,0.1026,0.0963,0,0,0.1023,0.1022,0,0,0,0,0,0,0,0,0.0841,0.0841,0.0845,0.0845,0.0846,0.0888,0.0889,0.0889,0.0982,0.0984,0.0986,0.0989,0.1028,0.1027,0.1026,0,0,0,0,0,0,0,0,0,0,0,0,0,0,0,0.0845,0.0845,0,0.0888,0.0889,0.0889,0.0982,0.0984,0.0986,0.0988,0.1028,0.1027,0.1026,0,0,0,0,0,0,0,0,0,0,0,0,0,0,0,0,0,0,0,0,0,0,0,0,0,0,0,0,0,0,0,0,0,0,0,0,0,0,0,0,0,0,0,0,0,0,0,0,0,0,0,0,0,0,0,0,0,0,0,0,0,0,0,0,0,0,0,0,0]}]]]